Theta_e
293 292 291 290 290 289 289 288 287 286 285 285 284 282 281 279 278 278 277 277 276 277 276 276 276 276 276 276 277 277 277 278
292 292 291 290 289 288 288 287 286 284 284 283 282 280 279 279 278 277 277 276 276 276 275 275 275 275 274 275 275 273 274 274
293 291 290 289 288 287 287 286 286 284 283 281 280 279 278 277 276 276 275 275 275 274 274 274 274 273 273 272 272 271 271 272
292 290 290 289 288 287 286 286 285 283 282 280 279 278 276 276 276 275 275 274 274 273 272 272 272 272 272 271 271 271 270 271
292 290 290 289 288 287 286 285 284 282 281 279 277 277 275 275 275 274 273 273 272 272 272 271 271 271 271 271 270 270 270 271
292 291 291 287 287 286 286 285 284 281 279 277 276 275 275 274 273 272 272 272 272 271 270 270 269 270 270 270 270 270 271 272
291 289 288 287 287 285 285 284 283 280 277 276 275 274 273 272 271 271 270 270 270 269 269 268 270 273 275 274 272 272 271 270
291 290 288 287 286 284 284 283 281 278 276 274 274 272 271 271 270 270 269 270 269 269 269 269 269 273 274 275 273 272 271 271
289 290 289 287 283 282 282 281 278 277 275 273 272 271 270 269 269 269 269 269 268 268 269 268 269 273 274 274 273 271 271 272
292 291 290 285 283 281 279 277 276 274 273 272 272 270 269 268 268 268 268 268 268 268 267 266 267 270 272 274 271 271 271 273
290 289 285 281 281 279 277 275 274 273 272 272 271 269 268 268 268 268 268 267 268 267 267 267 265 269 272 274 270 268 271 272
286 285 283 280 279 277 275 274 275 273 271 270 269 268 268 267 267 266 266 267 266 266 267 267 268 267 272 274 273 271 272 271
283 282 280 279 278 276 274 274 273 271 269 268 267 267 267 266 265 264 265 264 264 265 267 269 271 271 271 274 275 276 270 270
279 277 277 276 277 275 274 272 270 268 267 265 265 264 264 264 263 263 264 265 265 266 267 267 269 269 271 272 274 274 272 272
275 274 273 273 275 274 273 271 268 266 264 263 263 262 262 264 264 264 264 265 266 267 266 266 267 267 268 269 268 272 272 272
277 277 278 274 274 273 270 268 267 265 264 263 263 263 263 265 265 266 267 267 266 266 265 264 263 265 272 271 270 270 271 264
277 277 277 274 273 270 269 268 266 265 264 263 262 263 264 264 265 270 269 271 271 271 267 265 269 271 272 272 273 271 271 256
277 278 277 273 273 269 268 267 267 266 265 264 264 264 263 263 263 263 268 270 270 270 269 269 269 270 271 271 270 268 264 251
281 279 275 273 273 270 268 267 266 267 265 264 264 264 264 263 263 263 262 262 263 267 268 267 268 269 269 269 263 253 257 251
283 279 272 271 269 267 268 267 267 266 265 265 264 264 264 265 264 263 263 262 260 261 265 262 266 267 266 265 253 249 249 251
Wind_Speed
9 10 11 13 14 16 16 18 15 14 14 12 12 9 9 9 10 9 7 7 7 6 5 3 3 2 3 3 3 4 4 5
10 9 11 10 14 14 15 16 15 15 13 12 11 11 10 11 10 10 7 8 7 7 5 4 3 3 4 3 3 4 6 8
11 11 12 13 13 16 15 16 15 13 13 12 11 12 12 10 10 8 8 7 7 6 5 4 3 3 4 4 3 5 9 10
8 12 14 13 13 15 15 16 13 13 14 13 14 14 13 11 10 9 9 8 7 7 6 5 4 4 4 5 7 8 8 9
8 10 13 14 15 15 15 15 15 15 15 15 14 13 11 10 9 9 9 9 7 6 6 5 4 5 6 8 7 7 9 10
11 11 13 10 13 13 15 16 16 16 15 15 12 12 11 10 9 9 8 7 6 6 5 5 4 5 7 7 6 9 10 11
12 11 11 14 16 15 14 16 17 17 15 14 14 12 12 12 12 10 9 8 7 6 6 7 5 11 12 10 7 9 12 12
11 11 10 12 13 15 15 14 16 16 15 15 15 15 14 12 12 10 10 9 9 7 7 6 7 12 11 12 7 9 10 13
9 9 10 8 9 9 12 15 16 16 16 16 16 15 14 14 12 10 9 10 9 7 6 6 6 11 10 11 8 8 12 14
9 8 8 10 12 15 14 15 16 17 18 18 18 17 15 13 13 12 10 9 8 7 6 7 6 10 9 10 5 8 11 13
6 6 8 8 13 16 16 17 19 20 19 17 17 18 17 16 14 10 9 10 7 7 7 7 6 9 9 9 4 5 8 10
6 8 8 11 14 14 16 21 16 15 15 16 16 16 15 13 11 11 9 9 7 7 6 7 8 7 8 10 5 6 7 6
3 3 5 9 11 13 17 12 14 16 16 15 15 11 12 14 11 10 9 8 6 5 5 5 5 5 5 10 13 14 6 8
4 4 5 7 10 12 11 14 15 16 16 15 13 12 13 13 13 10 8 7 6 6 5 4 3 2 7 10 13 14 11 8
6 7 9 8 9 6 11 14 15 15 15 14 13 13 12 9 9 8 9 8 7 5 5 3 3 2 4 6 4 8 7 13
10 11 14 11 12 9 14 17 16 14 14 14 10 12 12 9 9 9 7 8 7 6 4 4 3 4 6 4 2 3 9 7
11 11 12 14 15 16 19 20 18 17 14 13 11 11 12 12 10 12 13 14 12 11 7 2 5 3 4 7 11 13 15 3
13 17 12 14 16 17 19 20 21 18 17 14 14 11 10 9 12 12 10 14 13 11 10 6 4 2 4 7 11 11 9 1
9 12 13 14 17 16 18 19 18 17 24 14 13 13 12 10 10 9 11 10 8 10 9 5 1 1 4 9 7 3 5 1
19 14 12 14 16 18 20 20 21 16 14 17 14 11 12 11 10 9 10 8 8 5 8 3 3 5 7 9 2 2 2 3
Wind_Direction
189 184 192 196 193 195 198 200 194 187 189 186 181 171 160 155 159 157 154 150 143 139 143 160 184 207 246 248 258 267 274 278
194 195 185 187 190 194 196 193 194 184 183 179 177 169 159 165 162 161 151 147 142 146 160 179 202 229 244 253 279 277 273 272
201 188 190 192 187 193 195 196 194 180 177 180 168 166 164 164 160 152 143 136 136 141 157 184 214 229 241 255 256 256 264 265
189 188 197 198 195 193 192 200 186 175 178 175 174 173 170 161 154 145 143 140 144 155 174 191 209 229 251 261 259 259 261 266
215 198 198 198 193 194 194 190 181 175 179 178 175 172 158 148 146 146 142 146 154 165 176 183 213 238 245 253 258 264 267 271
225 214 205 197 194 193 192 183 177 175 176 178 165 157 148 143 137 132 141 150 153 155 170 200 222 238 241 248 256 264 275 274
235 220 209 198 197 192 187 180 172 173 172 164 157 151 147 145 147 146 146 152 156 168 185 207 225 245 249 258 255 272 286 285
233 223 212 204 193 187 181 160 167 168 164 161 159 157 155 149 151 160 163 162 175 181 196 212 229 250 254 264 282 283 282 282
229 228 221 201 176 144 152 161 165 167 164 161 163 161 154 156 160 156 160 169 173 186 193 210 234 248 259 279 282 271 275 276
231 219 206 172 156 151 155 159 164 173 172 169 164 160 161 162 162 161 161 165 170 164 185 212 236 257 264 279 264 269 273 282
201 183 164 160 150 154 162 167 182 181 174 168 166 162 164 164 166 160 159 158 157 179 182 205 225 249 258 284 247 263 275 283
169 187 181 155 153 167 169 192 180 166 166 164 165 161 157 153 151 153 154 143 165 172 196 206 216 231 262 285 283 272 288 310
203 213 153 154 164 178 194 167 159 159 160 164 159 152 147 149 140 143 141 147 160 180 195 201 180 220 276 294 304 310 324 309
226 182 173 172 184 188 186 162 156 160 159 156 152 145 149 147 143 144 152 151 169 179 179 173 186 194 281 305 306 330 320 317
176 196 207 191 197 195 154 155 155 160 157 156 153 149 149 143 154 151 148 162 168 180 170 168 181 211 252 252 263 295 323 321
207 217 226 186 191 166 159 156 166 164 159 159 156 160 153 151 162 146 155 159 165 158 173 162 177 238 273 341 305 334 324 10
221 224 216 195 187 170 167 167 167 166 169 165 161 166 160 147 136 152 152 160 167 168 169 207 221 284 355 351 359 354 355 11
222 226 223 197 199 180 174 173 174 170 166 158 156 168 151 142 144 150 156 162 161 163 175 161 201 39 28 15 21 359 10 359
243 232 209 198 203 179 171 176 176 171 165 164 158 158 147 153 150 154 150 163 162 171 163 144 129 102 53 43 33 335 347 299
288 246 198 193 192 174 175 174 170 171 172 152 154 146 146 144 146 150 145 158 145 155 157 100 111 119 63 55 124 254 321 302